User: anonymous   Login
Location: Unspecified
(0.0000°N, 0.0000°E)
Time: 00:45:55
(UTC+00:00)
Language:

STARLINK-4173 - Orbit

View from above orbital plane
View from above orbital plane
View from above satellite
View from above satellite

Ground track
Ground track

The orbit is defined by the following mean orbital elements,

1 53285U          26145.56374382 +.00000000 +00000-0 -78661-5 0 00006
2 53285  53.2102 199.0204 0001279  85.2621 274.8517 15.08833179    05
Epoch (UTC): 25 May 2026 13:31:47
Eccentricity: 0.0001279
inclination: 53.2102°
perigee height: 539 km
apogee height: 541 km
right ascension of ascending node: 199.0204°
argument of perigee: 85.2621°
revolutions per day: 15.08833179
mean anomaly at epoch: 274.8517°

The dashed part of the orbit path shows where the satellite is in the earth's shadow,  

DLR